EW6618 Weather Reports


Display with metric or nautical units.
time (UTC)temp
F
wind
direction
speed
MPH
gust
MPH
rain 1hr
in
rain 24hr
in
rain mn
in
humidity
%
barometer
mb
20260505171126 61 271 7.0 11.0 0.00 0.00 0.00 80 1015.3
20260505170150 60 324 7.0 11.0 0.00 0.00 0.00 81 1015.3
20260505165155 60 356 8.0 11.0 0.00 0.00 0.00 81 1015.3
20260505164148 61 243 6.0 11.0 0.00 0.00 0.00 80 1015.1
20260505162053 61 342 6.0 13.0 0.00 0.00 0.00 81 1014.9
20260505161103 60 230 6.0 13.0 0.00 0.00 0.00 81 1014.8
20260505153009 59 245 6.0 9.0 0.00 0.00 0.00 84 1014.5
20260505151950 59 61 5.0 9.0 0.00 0.00 0.00 84 1014.6
20260505124422 58 269 9.0 14.0 0.00 0.00 0.00 86 1013.9
20260505123405 58 293 9.0 14.0 0.00 0.00 0.00 85 1013.9
20260505121239 58 275 8.0 13.0 0.00 0.00 0.00 85 1013.9
20260505120254 58 257 7.0 13.0 0.00 0.00 0.00 85 1013.8
20260505115254 58 287 6.0 13.0 0.00 0.00 0.00 84 1013.8
20260505114231 58 13 5.0 13.0 0.00 0.00 0.00 84 1013.9
20260505113221 58 28 8.0 13.0 0.00 0.00 0.00 83 1013.9
20260505112207 58 6 8.0 13.0 0.00 0.00 0.00 82 1014.0
20260505111223 58 259 8.0 13.0 0.00 0.00 0.00 83 1014.0
20260505110150 58 350 8.0 13.0 0.00 0.00 0.00 84 1013.9
20260505102116 59 292 3.0 9.0 0.00 0.00 0.00 78 1014.0
20260505094709 58 298 3.0 11.0 0.00 0.00 0.00 84 1014.1
20260505093706 59 283 5.0 11.0 0.00 0.00 0.00 85 1014.2
20260505092636 59 350 3.0 9.0 0.00 0.00 0.00 84 1014.4
20260505091621 59 44 3.0 6.0 0.00 0.00 0.00 84 1014.4
20260505090642 59 269 3.0 9.0 0.00 0.00 0.00 85 1014.5
20260505085638 59 241 2.0 9.0 0.00 0.00 0.00 85 1014.6
20260505083443 59 297 1.0 3.0 0.00 0.00 0.00 85 1014.7
20260505082423 59 302 1.0 6.0 0.00 0.00 0.00 86 1014.7
20260505081354 59 20 1.0 6.0 0.00 0.00 0.00 86 1014.8
20260505080357 59 295 2.0 7.0 0.00 0.00 0.00 86 1014.9
20260505075401 59 311 2.0 7.0 0.00 0.00 0.00 85 1014.9
20260505074424 59 270 3.0 7.0 0.00 0.00 0.00 85 1015.0
20260505072346 59 299 5.0 8.0 0.00 0.00 0.00 84 1015.2
20260505070210 59 333 5.0 9.0 0.00 0.00 0.00 85 1015.2
20260505065136 59 288 6.0 9.0 0.00 0.00 0.00 86 1015.1
20260505064105 59 245 6.0 9.0 0.00 0.00 0.00 86 1015.3
20260505063052 59 291 4.0 9.0 0.00 0.00 0.00 85 1015.3
20260505062042 59 266 4.0 8.0 0.00 0.00 0.00 86 1015.2
20260505061031 59 286 3.0 6.0 0.00 0.00 0.00 86 1015.3
20260505060004 59 272 4.0 8.0 0.00 0.00 0.00 86 1015.3
20260505055003 59 235 4.0 8.0 0.00 0.00 0.00 86 1015.4
20260505053935 59 297 5.0 8.0 0.00 0.00 0.00 86 1015.3
20260505052902 59 285 5.0 8.0 0.00 0.00 0.00 86 1015.4
20260505050730 59 249 4.0 9.0 0.00 0.00 0.00 85 1015.5
20260505041440 60 224 3.0 10.0 0.00 0.00 0.00 87 1015.8
20260505040416 60 78 2.0 6.0 0.00 0.00 0.00 87 1015.6
20260505035431 60 187 3.0 6.0 0.00 0.00 0.00 87 1015.6
20260505033341 60 293 3.0 7.0 0.00 0.00 0.00 86 1015.5
20260505032321 60 134 3.0 8.0 0.00 0.00 0.00 86 1015.4
20260505030123 60 106 4.0 9.0 0.00 0.00 0.00 86 1015.2
20260505025128 60 34 4.0 9.0 0.00 0.00 0.00 85 1015.1
20260505022956 60 136 6.0 14.0 0.00 0.00 0.00 84 1015.2
20260505021955 60 66 8.0 16.0 0.00 0.00 0.00 83 1015.3
20260505021006 61 304 11.0 16.0 0.00 0.00 0.00 83 1015.2
20260505015935 61 263 12.0 16.0 0.00 0.00 0.00 82 1015.2
20260505014922 62 247 12.0 16.0 0.00 0.00 0.00 80 1015.2
20260505013930 62 272 12.0 15.0 0.00 0.00 0.00 81 1015.2
20260505012917 62 236 10.0 16.0 0.00 0.00 0.00 80 1015.3
20260505010735 62 328 9.0 18.0 0.00 0.00 0.00 79 1015.4
20260505004613 62 271 9.0 14.0 0.00 0.00 0.00 79 1015.4
20260505003625 62 200 9.0 14.0 0.00 0.00 0.00 78 1015.4
20260505002625 63 221 10.0 14.0 0.00 0.00 0.00 79 1015.5
20260505001622 63 246 9.0 13.0 0.00 0.00 0.00 78 1015.5
20260505000622 62 277 11.0 16.0 0.00 0.00 0.00 78 1015.6
20260504235645 62 226 11.0 18.0 0.00 0.00 0.00 78 1015.4
20260504234643 63 32 11.0 18.0 0.00 0.00 0.00 78 1015.3
20260504233640 63 214 13.0 18.0 0.00 0.00 0.00 78 1015.3
20260504232701 63 281 12.0 18.0 0.00 0.00 0.00 77 1015.3
20260504231721 63 177 13.0 18.0 0.00 0.00 0.00 79 1015.2
20260504230650 63 236 13.0 21.0 0.00 0.00 0.00 75 1015.3
20260504225621 64 226 13.0 21.0 0.00 0.00 0.00 75 1015.5
20260504224609 64 332 12.0 17.0 0.00 0.00 0.00 75 1015.6
20260504223538 65 3 11.0 17.0 0.00 0.00 0.00 74 1015.7
20260504222604 65 259 11.0 16.0 0.00 0.00 0.00 74 1015.9
20260504221541 66 219 11.0 14.0 0.00 0.00 0.00 74 1016.0
20260504220521 66 319 11.0 15.0 0.00 0.00 0.00 73 1016.2
20260504215516 66 198 11.0 16.0 0.00 0.00 0.00 73 1016.2
20260504214445 66 42 11.0 17.0 0.00 0.00 0.00 73 1016.3
20260504213452 66 195 9.0 17.0 0.00 0.00 0.00 74 1016.5
20260504212437 66 225 8.0 13.0 0.00 0.00 0.00 74 1016.5
20260504210258 66 226 7.0 11.0 0.00 0.00 0.00 71 1016.8
20260504205231 67 313 7.0 11.0 0.00 0.00 0.00 70 1016.5
20260504204201 67 309 6.0 9.0 0.00 0.00 0.00 69 1016.5
20260504202054 67 245 6.0 11.0 0.00 0.00 0.00 68 1016.5
20260504195918 67 143 6.0 10.0 0.00 0.00 0.00 65 1016.7
20260504193813 67 271 7.0 11.0 0.00 0.00 0.00 68 1016.7
20260504192813 67 49 8.0 11.0 0.00 0.00 0.00 68 1016.6
20260504191741 66 229 8.0 12.0 0.00 0.00 0.00 68 1016.8
20260504190755 66 234 8.0 13.0 0.00 0.00 0.00 68 1016.7
20260504185813 66 225 8.0 13.0 0.00 0.00 0.00 68 1016.5
20260504182446 67 225 6.0 11.0 0.00 0.00 0.00 71 1016.7
20260504181421 65 309 6.0 10.0 0.00 0.00 0.00 73 1016.8
20260504180439 65 239 6.0 9.0 0.00 0.00 0.00 73 1016.7
20260504175429 65 281 6.0 9.0 0.00 0.00 0.00 73 1016.8
20260504174419 65 246 6.0 10.0 0.00 0.00 0.00 75 1016.8
20260504173416 64 212 6.0 11.0 0.00 0.00 0.00 76 1016.7
20260504172435 63 237 7.0 11.0 0.00 0.00 0.00 76 1016.7
20260504171430 63 8 6.0 10.0 0.00 0.00 0.00 75 1016.6